TimeEET,TemperatureF,Dew PointF,Humidity,Sea Level PressureIn,VisibilityMPH,Wind Direction,Wind SpeedMPH,Gust SpeedMPH,PrecipitationIn,Events,Conditions,WindDirDegrees,DateUTC
12:20 AM,46.4,39.2,76,30.27,6.2,NNE,11.5,-,N/A,,Mostly Cloudy,30,2013-12-30 22:20:00
12:50 AM,46.4,39.2,76,30.27,6.2,NNE,11.5,-,N/A,,Mostly Cloudy,20,2013-12-30 22:50:00
1:20 AM,44.6,39.2,81,30.27,6.2,North,11.5,-,N/A,,Mostly Cloudy,10,2013-12-30 23:20:00
1:50 AM,44.6,37.4,76,30.27,6.2,North,11.5,-,N/A,,Mostly Cloudy,10,2013-12-30 23:50:00
2:00 AM,44,38,71,30.30,6,North,11.5,,,,Mostly Cloudy,10,2013-12-31 00:00:00
2:20 AM,44.6,37.4,76,30.30,6.2,NNE,12.7,-,N/A,,Mostly Cloudy,20,2013-12-31 00:20:00
2:50 AM,42.8,37.4,81,30.30,6.2,NNE,13.8,-,N/A,,Mostly Cloudy,20,2013-12-31 00:50:00
3:20 AM,44.6,37.4,76,30.30,6.2,North,11.5,-,N/A,,Mostly Cloudy,10,2013-12-31 01:20:00
3:50 AM,42.8,37.4,81,30.30,6.2,NNE,13.8,-,N/A,,Mostly Cloudy,20,2013-12-31 01:50:00
4:20 AM,42.8,37.4,81,30.30,6.2,North,12.7,-,N/A,,Mostly Cloudy,10,2013-12-31 02:20:00
4:50 AM,42.8,37.4,81,30.27,6.2,NNE,10.4,-,N/A,,Mostly Cloudy,20,2013-12-31 02:50:00
5:00 AM,44,37,69,30.30,6,NNE,10.4,,,,Mostly Cloudy,20,2013-12-31 03:00:00
5:20 AM,44.6,37.4,76,30.27,6.2,North,10.4,-,N/A,,Mostly Cloudy,10,2013-12-31 03:20:00
5:50 AM,42.8,37.4,81,30.30,6.2,NNE,11.5,-,N/A,,Mostly Cloudy,20,2013-12-31 03:50:00
6:20 AM,42.8,39.2,87,30.30,6.2,North,10.4,-,N/A,,Mostly Cloudy,10,2013-12-31 04:20:00
6:50 AM,42.8,39.2,87,30.30,6.2,North,9.2,-,N/A,,Mostly Cloudy,10,2013-12-31 04:50:00
7:20 AM,42.8,39.2,87,30.30,6.2,North,10.4,-,N/A,,Mostly Cloudy,360,2013-12-31 05:20:00
7:50 AM,42.8,39.2,87,30.30,6.2,North,11.5,-,N/A,,Mostly Cloudy,350,2013-12-31 05:50:00
8:00 AM,42,39,86,30.32,6,North,11.5,,,,Mostly Cloudy,350,2013-12-31 06:00:00
8:20 AM,42.8,41.0,93,30.30,6.2,North,11.5,-,N/A,,Mostly Cloudy,350,2013-12-31 06:20:00
8:50 AM,41.0,39.2,93,30.33,3.7,North,11.5,-,N/A,,Light Drizzle,350,2013-12-31 06:50:00
9:20 AM,42.8,39.2,87,30.30,3.7,North,12.7,-,N/A,,Light Drizzle,360,2013-12-31 07:20:00
9:50 AM,41.0,39.2,93,30.33,3.7,North,10.4,-,N/A,,Light Drizzle,350,2013-12-31 07:50:00
10:20 AM,42.8,39.2,87,30.33,2.5,North,11.5,-,N/A,,Light Drizzle,360,2013-12-31 08:20:00
10:50 AM,41.0,39.2,93,30.30,2.5,North,12.7,-,N/A,,Light Drizzle,350,2013-12-31 08:50:00
11:00 AM,42,39,86,30.33,2,North,12.7,,,Rain,Light Drizzle,350,2013-12-31 09:00:00
11:20 AM,41.0,39.2,93,30.30,3.7,North,12.7,-,N/A,,Light Drizzle,350,2013-12-31 09:20:00
11:50 AM,41.0,39.2,93,30.30,2.5,North,13.8,-,N/A,,Light Drizzle,350,2013-12-31 09:50:00
12:20 PM,41.0,39.2,93,30.30,2.5,North,12.7,-,N/A,,Light Drizzle,350,2013-12-31 10:20:00
12:50 PM,42.8,39.2,87,30.27,2.5,North,11.5,-,N/A,,Light Drizzle,360,2013-12-31 10:50:00
1:20 PM,42.8,39.2,87,30.27,2.5,North,12.7,-,N/A,,Light Drizzle,10,2013-12-31 11:20:00
1:50 PM,42.8,39.2,87,30.27,2.5,North,15.0,-,N/A,,Light Drizzle,350,2013-12-31 11:50:00
2:00 PM,42,40,88,30.29,2,North,15.0,,,Rain,Light Drizzle,350,2013-12-31 12:00:00
2:20 PM,41.0,39.2,93,30.27,-9999.0,North,13.8,-,N/A,,Light Drizzle,350,2013-12-31 12:20:00
2:50 PM,41.0,39.2,93,30.27,-9999.0,North,13.8,-,N/A,,Light Drizzle,360,2013-12-31 12:50:00
3:20 PM,41.0,39.2,93,30.27,-9999.0,North,13.8,-,N/A,,Light Drizzle,350,2013-12-31 13:20:00
3:50 PM,41.0,39.2,93,30.27,-9999.0,North,13.8,-,N/A,,Mostly Cloudy,350,2013-12-31 13:50:00
4:20 PM,41.0,39.2,93,30.27,-9999.0,North,16.1,-,N/A,,Mostly Cloudy,350,2013-12-31 14:20:00
4:50 PM,41.0,39.2,93,30.27,-9999.0,North,15.0,-,N/A,,Mostly Cloudy,350,2013-12-31 14:50:00
5:00 PM,41,38,87,30.30,2,North,15.0,,,,Mist,350,2013-12-31 15:00:00
5:20 PM,41.0,39.2,93,30.27,-9999.0,North,13.8,-,N/A,,Mostly Cloudy,350,2013-12-31 15:20:00
5:50 PM,41.0,39.2,93,30.27,-9999.0,North,12.7,-,N/A,,Mostly Cloudy,350,2013-12-31 15:50:00
6:20 PM,42.8,41.0,93,30.27,3.7,North,11.5,-,N/A,,Mostly Cloudy,10,2013-12-31 16:20:00
6:50 PM,42.8,41.0,93,30.27,3.7,North,10.4,-,N/A,,Mostly Cloudy,10,2013-12-31 16:50:00
7:20 PM,44.6,41.0,87,30.27,3.7,North,10.4,-,N/A,,Mostly Cloudy,10,2013-12-31 17:20:00
7:50 PM,44.6,41.0,87,30.30,3.7,NNE,9.2,-,N/A,,Mostly Cloudy,20,2013-12-31 17:50:00
8:00 PM,44,41,84,30.31,4,NNE,9.2,,,,Mist,20,2013-12-31 18:00:00
8:20 PM,44.6,41.0,87,30.30,3.7,NNE,4.6,-,N/A,,Mostly Cloudy,20,2013-12-31 18:20:00
8:50 PM,44.6,41.0,87,30.30,3.7,North,6.9,-,N/A,,Mostly Cloudy,350,2013-12-31 18:50:00
9:20 PM,44.6,41.0,87,30.27,3.7,NNE,9.2,-,N/A,,Mostly Cloudy,20,2013-12-31 19:20:00
9:50 PM,44.6,41.0,87,30.27,3.7,NNE,10.4,-,N/A,,Mostly Cloudy,20,2013-12-31 19:50:00
10:20 PM,44.6,39.2,81,30.27,3.7,NNE,9.2,-,N/A,,Mostly Cloudy,20,2013-12-31 20:20:00
10:50 PM,44.6,41.0,87,30.30,3.7,NNE,8.1,-,N/A,,Mostly Cloudy,20,2013-12-31 20:50:00
11:00 PM,45,40,76,30.31,4,NNE,8.1,,,,Mist,20,2013-12-31 21:00:00
11:20 PM,44.6,39.2,81,30.27,3.7,NNE,9.2,-,N/A,,Mostly Cloudy,20,2013-12-31 21:20:00
11:50 PM,44.6,39.2,81,30.27,3.7,NNE,8.1,-,N/A,,Mostly Cloudy,20,2013-12-31 21:50:00